Погода в Херцогенаурахе

Германия     49°34′04″N   10°52′41″E
темп.,
°C
ветер,
м/с
пор.,
м/с
влажн.,
%
обл.,
%
осадки,
мм/ч
давл.,
гПа
погр.,
м
18 мая, вт
вт1823:00+9зюз6139136 0.3 1011662
02:00+8з5119580 0.4 1012530
05:00+8зюз4893100 0.3 1013658
08:00+9з3892100 0.8 1015821
11:00+10з5883100 1.2 10151055
14:00+11з5778100 2.1 10151313
17:00+10з488644 1.1 1015760
20:00+9з379011 1.8 1015540
19 мая, ср
ср1923:00+6зюз25965 0.1 1017112
02:00+5юз23966 0.1 101770
05:00+5зюз2798100 0.0 1017234
08:00+8з369057 0.1 1018446
11:00+11зсз467548 0.9 10181159
14:00+12зсз4676100 4.1 10171200
17:00+13зсз466946 1.9 10161225
20:00+10зсз38856 3.0 1017295
20 мая, чт
чт2023:00+7зюз259631 0.8 1019129
02:00+6зюз2697100 0.9 1020190
05:00+7зюз399696 0.1 1020381
08:00+7з369697 0.5 1022376
11:00+11зсз568173 0.9 10221060
14:00+12зсз5673100 2.1 10221337
17:00+15зсз36484 0.3 10221932
20:00+12зюз357176 0.4 1022118
21 мая, пт
пт2123:00+8юз228698 0.0 102330
02:00+7ю2488100 0.0 102185
05:00+7ююв3786100 0.0 1019189
08:00+10ююв41075100 0.0 1017400
11:00+14ююз5855100 0.0 1015979
14:00+15ююз3759100 0.1 1013971
17:00+17ююз5960100 0.2 10091032
20:00+14юз3975100 0.6 1008315
22 мая, сб
сб2223:00+12ю3896100 4.4 1007427
02:00+11ююз2498100 10.2 1006184
05:00+10зюз51295100 7.8 1007687
08:00+9зюз51192100 9.3 1009845
11:00+8зюз41091100 0.9 1009836
14:00+13зюз6105699 1.3 10091840
17:00+15з612475 0.0 10082330
20:00+11з513795 0.4 10101078